Location: Carabito
(9.8355°N, 67.9249°W)
Time: 09:49:08
(UTC+00:00)

CZ-4B R/B - Pass Details

Date: 23 August 2024
Orbit: 807 x 881 km, 99.0° (Epoch: 10 September)

Event Time Altitude Azimuth Distance (km) Brightness Sun altitude
Exits shadow 23:53:49 20° 67° (ENE) 1,940 4.6 -17.3°
Drops below altitude 10° 23:57:14 10° 29° (NNE) 2,522 5.5 -18.1°
Sets 00:00:14 0° 13° (NNE) 3,452 6.4 -18.8°
